Location: Boca de Tacagua
(10.5333°N, 66.9833°W)
Time: 05:39:22
(UTC+00:00)

Cosmos 1536 - Pass Details

Date: 08 July 2022
Orbit: 536 x 556 km, 82.5° (Epoch: 12 August)

Event Time Altitude Azimuth Distance (km) Brightness Sun altitude
Exits shadow 08:20:38 28° 344° (NNW) 1,049 4.3 -25.2°
Drops below altitude 10° 08:22:41 10° 354° (N) 1,830 5.8 -24.8°
Sets 08:24:53 0° 358° (N) 2,725 6.8 -24.3°
